sim
Sign-in with your pilot id or email,
or register
Callsign
Passwort

Schedule Details

Flight Number: RYR1003 (1)
Departure: Warsaw Modlin Airport (EPMO) at 07:40
Arrival: Thessaloniki International Airport (LGTS) at 09:55
Route: Ryanair Passenger Schedule. Enter filed route here before submitting Pirep.

Weather Information
Getting current METAR information for EPMO 252200Z 10005KT CAVOK 14/10 Q1013
Getting current METAR information for LGTS 252150Z 00000KT CAVOK 15/12 Q1020 NOSIG

Schedule Frequency

Route Map